Pierceville, KS

6:27 AM CST on February 25, 2017 (GMT -0600)
Garden City Regional

Weather History for KGCK - October, 2013

Change the Weather History Date:

Tuesday, October 15, 2013

  Actual Average Record
Temperature  
Mean Temperature 46 °F 56 °F  
Max Temperature 56 °F 70 °F 89 °F (1948)
Min Temperature 35 °F 42 °F 23 °F (1952)
Degree Days  
Heating Degree Days 19 10  
Month to date heating degree days 87 114  
Since 1 July heating degree days 105 186  
Cooling Degree Days 0 0  
Month to date cooling degree days 19 18  
Year to date cooling degree days 1591 1296  
Moisture  
Dew Point 31 °F    
Average Humidity 60    
Maximum Humidity 82    
Minimum Humidity 38    
Precipitation  
Precipitation 0.00 in 0.04 in 0.48 in (1984)
Month to date precipitation 0.64 0.71  
Year to date precipitation 13.23 17.83  
Sea Level Pressure  
Sea Level Pressure 30.16 in    
Wind  
Wind Speed 16 mph (NNW)    
Max Wind Speed 30 mph    
Max Gust Speed 36 mph    
Visibility 10 miles    
Events      
T = Trace of Precipitation, MM = Missing Value Source: NWS Daily Summary

Daily Weather History Graph

Daily Weather History Graph

Search for Another Location

Airport or City:

Trip Planner

Search our weather history database for the weather conditions in past years. The results will help you decide how hot, cold, wet, or windy it might be!

Date:

Astronomy

Oct. 15, 2013 Rise Set
Actual Time 7:51 AM CDT 7:04 PM CDT
Civil Twilight 7:25 AM CDT 7:31 PM CDT
Nautical Twilight 6:54 AM CDT 8:01 PM CDT
Astronomical Twilight 6:24 AM CDT 8:32 PM CDT
Moon 5:08 PM CDT (10/15) 4:19 AM CDT (10/15)
Length of Visible Light 12h 06m
Length of Day
11h 13m
Waxing Gibbous, 88% of the Moon is Illuminated
Oct 15
Waxing Gibbous
Oct 18
Full
Oct 26
Last Quarter
Nov 3
New
Nov 9
First Quarter

Hourly Weather History & Observations

Time (CDT) Temp. Windchill Dew Point Humidity Pressure Visibility Wind Dir Wind Speed Gust Speed Precip Events Conditions
12:54 AM 44.1 °F 35.7 °F 34.0 °F 68% 30.02 in 10.0 mi NNW 20.7 mph 24.2 mph N/A   Clear
1:54 AM 43.0 °F 34.8 °F 33.1 °F 68% 30.04 in 10.0 mi NNW 18.4 mph - N/A   Clear
2:54 AM 42.1 °F 35.7 °F 32.0 °F 67% 30.07 in 10.0 mi NNW 11.5 mph - N/A   Clear
3:54 AM 41.0 °F 34.3 °F 32.0 °F 70% 30.06 in 10.0 mi NNW 11.5 mph - N/A   Clear
4:54 AM 39.9 °F 33.4 °F 32.0 °F 73% 30.09 in 10.0 mi NW 10.4 mph - N/A   Clear
5:54 AM 37.9 °F 31.5 °F 32.0 °F 79% 30.12 in 10.0 mi NW 9.2 mph - N/A   Clear
6:54 AM 36.0 °F 29.6 °F 30.9 °F 82% 30.16 in 10.0 mi NW 8.1 mph - N/A   Clear
7:54 AM 36.0 °F 28.0 °F 30.9 °F 82% 30.19 in 10.0 mi NW 11.5 mph - N/A   Clear
8:54 AM 39.0 °F 30.6 °F 30.9 °F 73% 30.20 in 10.0 mi NW 15.0 mph - N/A   Clear
9:54 AM 43.0 °F 33.1 °F 30.9 °F 62% 30.22 in 10.0 mi NNW 26.5 mph 32.2 mph N/A   Clear
10:54 AM 48.0 °F - 30.9 °F 52% 30.22 in 10.0 mi NNW 23.0 mph 32.2 mph N/A   Clear
11:54 AM 50.0 °F - 30.0 °F 46% 30.22 in 10.0 mi NNW 24.2 mph 32.2 mph N/A   Clear
12:54 PM 52.0 °F - 30.9 °F 45% 30.21 in 10.0 mi NNW 20.7 mph 31.1 mph N/A   Clear
1:54 PM 54.0 °F - 30.9 °F 41% 30.17 in 10.0 mi North 24.2 mph 29.9 mph N/A   Clear
2:54 PM 55.0 °F - 30.0 °F 38% 30.14 in 10.0 mi NNW 19.6 mph 29.9 mph N/A   Clear
3:54 PM 55.9 °F - 30.0 °F 37% 30.13 in 10.0 mi North 21.9 mph 28.8 mph N/A   Clear
4:54 PM 55.0 °F - 30.0 °F 38% 30.13 in 10.0 mi North 19.6 mph 28.8 mph N/A   Clear
5:54 PM 53.1 °F - 28.9 °F 40% 30.14 in 10.0 mi North 21.9 mph 25.3 mph N/A   Clear
6:54 PM 48.9 °F - 30.0 °F 48% 30.18 in 10.0 mi North 11.5 mph - N/A   Clear
7:54 PM 45.0 °F 39.7 °F 30.9 °F 58% 30.21 in 10.0 mi North 10.4 mph - N/A   Clear
8:54 PM 41.0 °F 35.8 °F 30.9 °F 67% 30.23 in 10.0 mi North 8.1 mph - N/A   Clear
9:54 PM 41.0 °F 33.9 °F 30.0 °F 65% 30.24 in 10.0 mi North 12.7 mph - N/A   Clear
10:54 PM 39.0 °F 31.4 °F 30.0 °F 70% 30.24 in 10.0 mi North 12.7 mph - N/A   Clear
11:54 PM 37.9 °F 30.9 °F 30.0 °F 73% 30.24 in 10.0 mi North 10.4 mph - N/A   Clear